Total_Precipitation_Accumulation
0.05 0.04 0.01 0.07 0.01 0.00 0.00 0.00 0.00 0.00 0.00 0.00 0.00 0.00 0.00 0.00 0.00 0.06 0.01 0.00 0.07 0.01 0.02 0.04 0.14 0.15 0.29 0.43 0.29 0.31 0.70 0.75 1.14 1.11 0.57 0.56 0.83 0.80 0.82 0.42 0.26 0.21 0.16 0.10 0.06 0.03 0.02 0.01 0.00
0.05 0.01 0.05 0.03 0.00 0.00 0.00 0.00 0.00 0.00 0.00 0.00 0.00 0.00 0.00 0.00 0.00 0.01 0.00 0.03 0.07 0.00 0.03 0.08 0.16 0.16 0.30 0.31 0.32 0.30 0.48 0.43 1.30 1.18 0.99 0.97 1.24 1.16 0.53 0.47 0.28 0.16 0.12 0.04 0.03 0.02 0.01 0.01 0.01
0.08 0.01 0.03 0.01 0.00 0.00 0.00 0.00 0.00 0.00 0.00 0.00 0.00 0.00 0.00 0.01 0.02 0.04 0.03 0.00 0.02 0.00 0.10 0.11 0.22 0.20 0.25 0.23 0.38 0.36 0.48 0.30 0.22 0.65 1.32 1.25 1.35 1.41 0.87 0.49 0.21 0.08 0.05 0.02 0.01 0.01 0.01 0.01 0.01
0.13 0.04 0.02 0.00 0.00 0.00 0.00 0.00 0.00 0.00 0.00 0.00 0.00 0.00 0.01 0.06 0.05 0.02 0.01 0.01 0.00 0.01 0.07 0.14 0.26 0.27 0.30 0.45 0.67 0.61 0.49 0.59 0.44 0.65 1.16 1.28 1.53 1.27 0.80 0.21 0.04 0.03 0.02 0.01 0.00 0.01 0.00 0.00 0.00
0.19 0.05 0.00 0.00 0.00 0.00 0.00 0.00 0.00 0.00 0.00 0.00 0.00 0.00 0.02 0.07 0.08 0.02 0.04 0.01 0.01 0.02 0.05 0.14 0.42 0.35 0.31 0.37 0.43 0.59 0.57 0.49 0.53 0.48 0.56 0.34 0.59 0.34 0.45 0.13 0.05 0.03 0.02 0.01 0.00 0.00 0.00 0.00 0.00
0.17 0.07 0.00 0.00 0.00 0.00 0.00 0.00 0.00 0.00 0.00 0.00 0.00 0.00 0.01 0.04 0.04 0.05 0.09 0.05 0.15 0.05 0.07 0.21 0.47 0.39 0.38 0.40 0.39 0.35 0.49 0.42 0.40 0.33 0.14 0.08 0.02 0.06 0.09 0.08 0.07 0.04 0.02 0.01 0.01 0.00 0.00 0.00 0.00
0.18 0.02 0.00 0.00 0.00 0.00 0.00 0.00 0.00 0.00 0.00 0.00 0.00 0.02 0.05 0.09 0.13 0.13 0.13 0.17 0.49 0.26 0.07 0.06 0.20 0.27 0.31 0.42 0.59 0.47 0.39 0.49 0.44 0.26 0.12 0.07 0.09 0.10 0.07 0.07 0.06 0.03 0.01 0.00 0.00 0.00 0.00 0.00 0.00
0.19 0.05 0.00 0.00 0.00 0.00 0.00 0.00 0.00 0.00 0.00 0.00 0.00 0.00 0.03 0.07 0.10 0.15 0.16 0.22 0.47 0.47 0.12 0.05 0.06 0.01 0.01 0.12 0.51 0.34 0.30 0.48 0.34 0.03 0.00 0.00 0.04 0.12 0.06 0.05 0.05 0.02 0.00 0.00 0.00 0.00 0.00 0.00 0.00
0.23 0.16 0.00 0.00 0.00 0.00 0.00 0.01 0.02 0.00 0.02 0.01 0.00 0.00 0.00 0.03 0.06 0.06 0.11 0.16 0.45 0.81 0.23 0.05 0.04 0.01 0.01 0.02 0.18 0.37 0.24 0.17 0.01 0.00 0.00 0.00 0.00 0.01 0.01 0.00 0.01 0.00 0.00 0.00 0.00 0.00 0.00 0.00 0.00
0.30 0.12 0.00 0.00 0.00 0.00 0.00 0.00 0.00 0.01 0.01 0.03 0.01 0.00 0.01 0.06 0.05 0.03 0.04 0.04 0.06 0.24 0.46 0.09 0.01 0.00 0.00 0.00 0.01 0.03 0.06 0.01 0.00 0.00 0.00 0.00 0.00 0.00 0.00 0.00 0.00 0.00 0.00 0.00 0.00 0.00 0.00 0.00 0.00
0.18 0.04 0.00 0.00 0.00 0.00 0.00 0.00 0.00 0.00 0.02 0.00 0.00 0.00 0.04 0.06 0.04 0.03 0.03 0.03 0.06 0.16 0.14 0.08 0.08 0.00 0.00 0.03 0.01 0.03 0.05 0.01 0.00 0.00 0.00 0.00 0.00 0.00 0.00 0.00 0.00 0.00 0.00 0.00 0.00 0.00 0.00 0.00 0.00
0.09 0.01 0.01 0.00 0.00 0.00 0.00 0.00 0.00 0.00 0.00 0.00 0.00 0.00 0.03 0.06 0.06 0.05 0.04 0.05 0.08 0.13 0.18 0.13 0.06 0.04 0.01 0.07 0.04 0.08 0.02 0.01 0.00 0.00 0.00 0.00 0.00 0.00 0.00 0.00 0.00 0.00 0.00 0.00 0.00 0.00 0.00 0.00 0.00
0.13 0.01 0.02 0.03 0.02 0.00 0.00 0.00 0.00 0.00 0.00 0.00 0.00 0.02 0.06 0.06 0.05 0.03 0.04 0.08 0.13 0.14 0.09 0.08 0.15 0.07 0.02 0.09 0.02 0.03 0.01 0.00 0.00 0.00 0.00 0.00 0.00 0.00 0.00 0.00 0.00 0.00 0.00 0.00 0.00 0.00 0.00 0.00 0.00
0.18 0.02 0.05 0.07 0.04 0.01 0.00 0.00 0.02 0.03 0.02 0.00 0.01 0.09 0.11 0.08 0.03 0.04 0.05 0.06 0.11 0.14 0.04 0.01 0.14 0.07 0.06 0.07 0.02 0.00 0.00 0.00 0.00 0.00 0.00 0.00 0.00 0.00 0.00 0.00 0.00 0.00 0.00 0.00 0.00 0.00 0.00 0.00 0.00
0.22 0.08 0.09 0.05 0.03 0.01 0.00 0.05 0.04 0.00 0.08 0.12 0.13 0.15 0.14 0.06 0.03 0.05 0.03 0.07 0.11 0.12 0.07 0.05 0.07 0.10 0.11 0.05 0.01 0.00 0.00 0.00 0.00 0.00 0.00 0.00 0.00 0.00 0.00 0.00 0.00 0.00 0.00 0.00 0.00 0.00 0.00 0.00 0.00
0.57 0.17 0.16 0.04 0.03 0.00 0.00 0.04 0.05 0.04 0.04 0.12 0.14 0.15 0.12 0.08 0.05 0.05 0.05 0.11 0.20 0.20 0.06 0.14 0.08 0.12 0.11 0.04 0.00 0.00 0.00 0.00 0.00 0.00 0.00 0.00 0.00 0.00 0.00 0.00 0.00 0.00 0.00 0.00 0.00 0.00 0.00 0.00 0.00
1.00 0.45 0.20 0.04 0.03 0.00 0.01 0.04 0.13 0.17 0.15 0.15 0.16 0.23 0.18 0.07 0.05 0.06 0.05 0.12 0.18 0.18 0.11 0.23 0.24 0.12 0.08 0.03 0.00 0.00 0.00 0.00 0.00 0.00 0.00 0.00 0.00 0.00 0.00 0.00 0.00 0.00 0.00 0.00 0.00 0.00 0.00 0.00 0.00
0.95 0.42 0.16 0.07 0.01 0.00 0.01 0.09 0.11 0.17 0.19 0.25 0.44 0.45 0.30 0.10 0.03 0.07 0.06 0.15 0.26 0.30 0.23 0.35 0.53 0.16 0.07 0.03 0.00 0.00 0.00 0.00 0.00 0.00 0.00 0.00 0.00 0.00 0.00 0.00 0.00 0.00 0.00 0.00 0.00 0.00 0.00 0.00 0.00
0.25 0.27 0.15 0.04 0.00 0.00 0.01 0.16 0.41 0.51 0.50 0.37 0.28 0.19 0.23 0.15 0.03 0.06 0.07 0.07 0.26 0.27 0.25 0.21 0.31 0.19 0.03 0.01 0.00 0.00 0.00 0.00 0.00 0.00 0.00 0.00 0.00 0.00 0.00 0.00 0.00 0.00 0.00 0.00 0.00 0.00 0.00 0.00 0.00
0.13 0.24 0.27 0.02 0.01 0.00 0.01 0.22 0.35 0.41 0.32 0.06 0.07 0.15 0.16 0.12 0.03 0.05 0.07 0.05 0.11 0.14 0.14 0.14 0.13 0.08 0.02 0.01 0.00 0.00 0.00 0.00 0.00 0.00 0.00 0.00 0.00 0.00 0.00 0.00 0.00 0.00 0.00 0.00 0.00 0.00 0.00 0.00 0.00
0.15 0.18 0.24 0.04 0.02 0.01 0.03 0.26 0.35 0.36 0.43 0.38 0.26 0.38 0.17 0.13 0.04 0.03 0.05 0.04 0.05 0.07 0.07 0.08 0.09 0.04 0.00 0.00 0.00 0.00 0.00 0.00 0.00 0.00 0.00 0.00 0.00 0.00 0.00 0.00 0.00 0.00 0.00 0.00 0.00 0.00 0.00 0.00 0.00
0.09 0.10 0.09 0.00 0.01 0.01 0.01 0.06 0.16 0.14 0.25 0.24 0.24 0.16 0.03 0.08 0.09 0.02 0.02 0.02 0.04 0.07 0.09 0.08 0.09 0.03 0.00 0.00 0.01 0.00 0.00 0.00 0.00 0.00 0.00 0.00 0.00 0.00 0.00 0.00 0.00 0.00 0.00 0.00 0.00 0.00 0.00 0.00 0.00
0.02 0.06 0.06 0.01 0.01 0.02 0.01 0.04 0.03 0.07 0.08 0.09 0.05 0.02 0.02 0.04 0.11 0.05 0.02 0.01 0.02 0.06 0.06 0.08 0.05 0.02 0.00 0.01 0.01 0.01 0.01 0.00 0.00 0.00 0.00 0.00 0.00 0.00 0.00 0.00 0.00 0.00 0.00 0.00 0.00 0.00 0.00 0.00 0.00
0.01 0.10 0.04 0.03 0.08 0.15 0.02 0.01 0.02 0.02 0.02 0.11 0.04 0.01 0.02 0.00 0.03 0.06 0.08 0.02 0.01 0.03 0.04 0.05 0.04 0.01 0.00 0.01 0.01 0.01 0.01 0.01 0.00 0.00 0.00 0.00 0.00 0.00 0.00 0.00 0.00 0.00 0.00 0.00 0.00 0.00 0.00 0.00 0.00
0.00 0.05 0.21 0.30 0.31 0.19 0.04 0.02 0.01 0.00 0.00 0.00 0.00 0.00 0.00 0.00 0.02 0.07 0.16 0.05 0.02 0.02 0.02 0.04 0.03 0.01 0.01 0.00 0.00 0.00 0.00 0.01 0.02 0.00 0.00 0.00 0.00 0.00 0.00 0.00 0.00 0.00 0.00 0.00 0.00 0.00 0.00 0.00 0.00
0.00 0.02 0.04 0.15 0.08 0.01 0.01 0.00 0.00 0.00 0.00 0.00 0.00 0.00 0.00 0.00 0.01 0.08 0.16 0.13 0.11 0.09 0.06 0.03 0.02 0.02 0.01 0.01 0.01 0.01 0.00 0.01 0.01 0.01 0.00 0.00 0.00 0.00 0.00 0.00 0.00 0.00 0.00 0.00 0.00 0.00 0.00 0.00 0.00
0.00 0.00 0.00 0.00 0.00 0.00 0.00 0.00 0.00 0.00 0.00 0.02 0.06 0.01 0.01 0.01 0.00 0.01 0.02 0.01 0.02 0.02 0.01 0.01 0.01 0.01 0.01 0.00 0.00 0.01 0.01 0.01 0.01 0.00 0.00 0.00 0.00 0.00 0.00 0.00 0.00 0.00 0.00 0.00 0.00 0.00 0.00 0.00 0.00
0.00 0.00 0.00 0.00 0.00 0.00 0.00 0.00 0.00 0.00 0.00 0.00 0.01 0.01 0.00 0.00 0.00 0.00 0.00 0.00 0.00 0.00 0.01 0.03 0.07 0.05 0.03 0.02 0.03 0.03 0.03 0.02 0.02 0.03 0.01 0.01 0.00 0.00 0.00 0.00 0.00 0.00 0.00 0.00 0.00 0.00 0.00 0.00 0.00
0.00 0.00 0.00 0.00 0.00 0.00 0.00 0.00 0.00 0.00 0.00 0.00 0.00 0.00 0.00 0.00 0.00 0.00 0.00 0.00 0.00 0.01 0.01 0.01 0.01 0.02 0.04 0.06 0.07 0.08 0.07 0.05 0.04 0.06 0.05 0.03 0.03 0.01 0.01 0.01 0.00 0.01 0.00 0.00 0.00 0.00 0.00 0.00 0.00
0.00 0.00 0.00 0.00 0.00 0.00 0.00 0.00 0.00 0.00 0.00 0.00 0.00 0.00 0.00 0.00 0.00 0.00 0.00 0.00 0.00 0.00 0.01 0.02 0.03 0.02 0.02 0.01 0.02 0.04 0.07 0.07 0.10 0.10 0.08 0.05 0.05 0.03 0.02 0.02 0.02 0.01 0.00 0.00 0.00 0.01 0.01 0.01 0.01